Temperature
29 30 30 30 31 31 30 30 30 30 30 30 30 29 28 27 26 26 25 25 24 23 22 22 22 22 21 21 21 20 20 20 19 19 19 19 18 18 18 18 18 18 18 18
27 29 29 30 30 31 31 30 30 30 30 30 29 28 27 26 25 25 24 24 23 22 22 21 21 21 21 21 21 20 20 20 19 19 19 18 18 18 18 18 18 18 18 18
26 28 28 28 29 30 30 31 30 29 29 29 28 27 26 26 25 24 23 23 22 22 21 21 20 20 20 20 20 20 20 19 19 19 19 18 18 18 18 18 17 17 17 17
26 26 25 28 30 30 30 30 30 29 28 28 27 25 25 24 24 23 23 22 21 21 21 20 20 20 20 20 19 19 19 19 19 19 18 18 18 18 18 18 17 17 17 17
25 25 26 28 29 29 28 28 28 28 27 27 26 25 24 23 22 22 21 21 20 20 20 20 19 19 19 19 19 19 19 19 19 18 18 18 18 18 17 17 17 17 16 16
25 24 24 27 29 29 28 26 26 26 26 25 25 24 23 22 21 21 20 20 20 19 19 19 19 19 19 18 18 18 18 18 18 18 17 17 17 17 17 17 16 16 16 16
24 24 26 27 28 28 25 24 25 25 24 24 23 22 21 21 20 20 19 19 19 19 19 18 18 18 18 18 18 18 18 17 17 17 17 17 17 17 17 16 16 16 16 15
24 24 24 26 26 25 24 24 24 23 23 22 22 21 20 20 19 19 19 18 18 18 18 17 17 17 17 17 17 17 17 17 17 17 17 16 16 16 16 16 16 15 15 15
24 24 24 24 24 23 23 23 22 22 22 21 21 20 20 19 19 18 18 18 17 17 17 17 16 16 16 16 16 16 16 16 16 16 16 16 16 16 15 15 15 15 15 14
23 23 23 23 22 22 22 21 21 21 21 21 20 20 19 19 18 18 17 17 17 17 16 16 16 16 16 16 16 16 16 16 15 15 15 15 15 15 15 15 15 15 14 14
22 22 22 21 21 20 20 20 20 20 20 20 20 19 19 18 18 17 17 17 16 16 16 16 15 15 16 16 15 15 15 15 15 15 14 15 14 14 15 15 14 14 14 14
21 21 21 20 20 19 19 19 19 19 19 18 19 18 18 17 17 17 16 16 16 15 15 15 15 15 15 15 15 15 15 14 14 14 14 14 14 14 14 14 14 14 14 14
20 19 19 19 19 18 18 18 18 18 18 17 17 18 17 17 16 16 16 15 15 15 15 15 15 15 15 15 15 15 14 14 14 14 14 14 14 14 13 14 13 13 13 13
18 18 18 18 18 18 18 18 17 17 17 17 17 17 16 16 16 15 15 15 15 14 15 15 14 14 14 14 14 14 14 14 14 14 14 14 14 13 13 13 13 13 13 13
18 18 17 17 17 17 17 17 17 17 17 17 16 16 16 15 15 15 15 15 14 14 14 14 14 14 14 14 14 14 14 13 13 13 13 13 13 13 13 13 13 13 13 12
17 17 17 17 17 17 17 17 17 16 16 16 16 16 15 15 15 14 14 14 14 13 13 14 14 14 14 14 13 13 13 13 13 13 13 13 13 13 13 13 13 13 12 12
17 17 16 16 16 16 16 16 16 16 16 15 15 15 15 14 14 14 14 14 13 13 13 13 13 13 13 13 13 13 13 13 13 13 13 13 13 13 13 13 12 12 12 12
16 16 16 16 15 15 15 15 15 15 15 15 14 14 14 14 14 13 13 13 13 13 13 13 13 13 13 13 13 13 13 13 13 13 13 13 13 12 12 12 12 12 12 12
15 15 15 15 15 15 15 14 14 14 14 14 14 14 13 13 13 13 13 13 13 12 12 13 13 13 13 13 13 13 12 12 12 12 12 12 12 12 12 12 12 12 12 12
15 15 15 15 14 14 14 14 14 14 13 13 13 13 13 13 13 13 12 12 12 12 12 12 12 12 12 13 12 12 12 12 12 12 12 12 12 12 12 12 11 11 11 11
14 14 14 14 14 14 13 13 13 13 13 13 13 13 12 12 12 12 12 12 12 12 12 12 12 12 12 12 12 12 12 12 12 12 12 12 12 12 12 12 11 11 11 11
14 13 13 13 13 13 13 13 13 13 13 13 12 12 12 12 12 12 12 12 12 12 12 12 12 12 12 12 12 12 12 12 12 12 12 12 12 12 12 12 11 11 11 11
13 13 13 13 12 12 12 12 12 12 12 12 12 12 12 12 12 12 12 12 12 12 12 12 12 12 12 12 12 12 12 12 12 12 12 12 12 11 11 11 11 11 11 11
12 12 12 12 12 12 12 12 12 12 12 12 12 12 12 12 12 12 12 12 12 12 11 11 12 12 12 12 12 12 12 12 12 12 11 11 11 11 11 11 11 11 11 10
12 12 12 12 12 12 12 12 12 12 12 12 12 12 12 12 12 12 12 12 12 12 11 11 11 11 11 11 11 11 11 11 11 11 11 11 11 11 11 11 10 10 10 10
12 12 12 12 12 12 12 12 12 12 12 12 12 12 12 12 12 12 12 12 12 11 11 11 11 11 11 11 11 11 11 11 11 11 11 10 10 10 10 10 10 10 9 9
12 12 12 12 12 12 12 12 12 12 12 12 12 12 12 12 12 12 11 11 11 11 11 11 11 11 11 11 11 11 11 11 11 10 10 10 10 10 10 9 9 9 9 9
Wind_Speed
15 16 15 15 16 15 15 14 15 13 9 6 2 2 4 6 5 4 2 2 2 3 3 2 2 2 4 6 7 8 9 10 10 9 8 7 7 7 7 7 8 6 6 5
15 16 15 18 17 15 15 14 15 15 11 6 1 3 4 4 3 2 1 1 1 2 2 2 3 3 3 4 5 6 8 8 8 9 8 8 8 8 7 7 6 6 6 6
14 15 15 17 15 13 12 11 11 12 7 3 3 4 3 2 2 1 2 2 2 2 2 2 2 2 2 2 4 5 5 6 7 7 8 7 8 7 7 6 5 5 5 5
13 14 17 12 10 10 10 11 9 6 3 3 3 3 3 3 2 1 1 1 0 2 3 3 3 2 2 2 3 4 5 5 5 6 6 6 6 6 5 5 5 4 4 4
11 15 16 14 8 8 8 10 5 4 3 4 3 1 1 4 5 3 3 3 2 1 1 2 2 1 1 3 4 4 4 4 4 5 5 5 6 6 5 4 4 4 4 4
12 14 15 10 6 5 7 7 4 4 4 5 5 4 3 4 3 3 3 2 1 1 0 1 1 1 1 2 2 3 3 3 2 3 3 4 4 4 4 4 4 4 3 3
15 16 13 8 8 6 8 3 4 5 4 4 4 4 3 4 3 3 3 2 2 1 1 1 1 1 1 1 2 2 2 3 3 3 3 4 3 3 4 4 4 4 3 3
13 15 10 7 6 5 3 4 4 4 5 5 4 3 2 2 2 2 1 2 1 2 3 2 1 2 2 1 1 2 2 3 3 3 3 4 4 4 4 5 4 4 3 3
7 6 4 7 6 5 5 5 5 5 5 4 4 3 2 2 1 1 1 1 0 2 3 2 1 1 2 1 1 2 2 2 2 2 2 2 4 4 4 4 4 4 4 3
6 4 4 5 6 7 6 5 6 6 6 5 4 4 3 2 1 1 0 0 1 2 3 2 2 1 2 1 1 2 2 2 2 2 2 2 2 3 3 3 3 3 3 3
8 6 5 5 6 7 7 7 7 8 8 6 4 4 3 2 1 0 1 1 2 2 2 2 2 2 2 2 2 2 2 2 2 3 3 2 2 1 2 2 3 3 3 2
7 6 6 6 6 7 7 7 8 8 7 6 5 5 3 1 1 0 1 1 2 2 2 2 2 2 2 2 2 3 3 3 3 3 3 3 3 3 5 3 5 4 3 3
5 7 7 7 7 8 7 7 7 6 5 6 5 5 3 1 1 0 1 2 2 2 2 2 1 1 2 3 3 3 3 3 2 2 3 3 3 4 3 3 5 5 4 5
5 6 8 8 8 7 7 6 5 5 5 4 4 3 2 1 1 0 1 1 1 1 1 1 1 1 2 3 3 3 3 2 2 3 3 3 3 3 3 4 3 2 2 4
7 7 7 6 6 6 6 5 5 5 4 3 2 2 1 1 1 1 0 1 1 1 1 1 1 1 2 3 4 3 3 2 2 2 2 3 2 2 3 3 3 3 3 2
7 6 6 6 7 7 7 6 5 4 4 3 2 2 2 1 1 1 1 1 1 2 1 1 1 1 2 3 3 3 2 2 1 1 2 3 3 2 2 3 3 3 4 4
7 7 6 6 7 7 7 6 6 5 4 3 2 2 2 2 1 2 2 2 2 2 2 2 2 1 1 2 3 3 2 2 3 3 2 2 3 3 3 3 3 3 4 4
8 7 7 6 6 6 7 6 5 4 3 3 2 2 2 2 2 1 2 1 1 2 3 3 2 2 2 2 2 2 2 2 2 2 1 2 2 2 2 2 2 3 3 5
7 7 6 5 5 5 5 5 4 3 3 3 2 2 2 2 2 2 2 2 2 3 2 2 3 3 3 3 2 3 3 3 2 2 2 2 2 2 2 2 2 2 3 4
5 5 4 4 4 4 3 3 2 2 2 2 2 1 1 1 1 1 1 2 2 2 2 3 3 3 3 3 3 3 3 4 3 3 3 3 3 3 3 3 3 2 2 2
3 3 2 3 2 2 2 2 2 2 2 1 1 1 1 1 1 0 1 2 0 0 2 3 2 2 2 2 2 2 2 2 2 2 2 3 3 3 3 2 2 2 2 2
2 2 2 2 2 2 2 2 2 2 1 1 2 1 1 1 1 1 1 1 1 1 2 2 2 1 1 1 2 2 2 1 1 1 1 2 2 2 3 3 3 3 2 2
2 2 2 2 2 2 2 2 1 1 1 1 1 2 2 2 2 2 2 1 1 2 1 1 1 3 2 1 1 1 1 1 1 1 1 1 2 2 2 2 2 2 2 2
3 2 2 2 2 2 2 2 2 1 1 2 2 2 2 2 2 2 1 2 3 4 1 1 3 3 2 2 1 1 1 1 0 0 1 2 1 1 1 2 1 1 1 1
3 3 2 2 2 2 2 2 2 2 2 2 2 2 2 2 2 1 0 1 3 3 2 2 4 4 3 2 1 0 1 0 0 0 1 1 1 0 0 1 1 1 1 1
3 3 2 3 3 3 3 2 2 2 2 2 2 2 2 1 2 2 1 2 2 3 2 3 3 3 2 1 0 1 1 0 1 1 1 1 1 1 1 1 1 1 1 1
3 2 2 3 3 3 2 2 2 2 2 2 2 1 1 1 1 1 1 1 2 2 2 2 2 2 1 1 1 0 0 0 0 0 0 0 0 0 1 1 1 1 1 1
Wind_Direction
273 279 281 274 266 260 260 266 273 277 279 285 332 43 72 94 96 92 77 79 90 120 126 143 146 182 194 179 182 182 183 185 185 186 186 192 195 193 196 199 205 198 202 207
270 271 275 275 274 267 259 257 263 271 276 295 356 71 75 95 110 120 141 196 162 135 137 160 166 196 194 185 187 181 183 186 183 184 188 194 196 195 195 200 205 202 206 207
271 275 272 261 266 270 270 270 271 274 287 342 21 30 35 74 108 151 198 218 207 194 173 193 189 196 195 199 189 185 182 184 182 187 194 199 203 198 198 199 203 207 215 213
267 272 265 270 283 279 278 283 291 300 322 359 21 36 43 31 32 43 12 7 322 200 182 192 195 181 174 201 203 178 176 181 176 184 193 195 197 197 197 192 200 209 216 217
259 262 264 267 273 280 283 284 310 322 337 341 347 324 66 43 48 32 7 2 4 320 213 190 183 172 172 210 189 180 179 175 178 185 189 191 194 192 184 181 191 202 209 209
252 259 264 274 291 301 287 270 348 351 344 333 339 308 333 27 33 357 353 339 331 307 355 119 147 183 189 199 169 170 170 157 152 164 183 191 188 185 180 187 195 200 196 199
252 257 260 289 310 293 262 279 340 340 339 336 344 343 352 349 357 357 346 331 342 352 60 66 88 128 148 160 174 159 143 145 154 168 189 188 186 184 182 194 195 195 188 186
251 256 258 334 320 323 347 359 351 344 342 347 355 9 6 347 347 360 354 357 356 58 75 84 86 136 140 121 126 129 143 151 157 180 207 190 180 191 195 196 193 186 185 187
262 271 341 359 358 9 3 353 345 339 332 335 322 322 326 341 341 2 16 32 244 133 110 107 102 142 145 149 154 142 142 152 162 181 190 183 187 193 192 190 193 191 186 191
287 276 308 334 350 355 354 342 326 314 306 300 300 306 312 306 299 305 328 307 137 130 131 120 121 114 131 134 144 147 156 158 167 180 183 169 182 194 185 180 183 183 191 193
278 289 309 313 328 331 336 334 327 319 310 306 302 303 301 300 286 214 126 110 119 125 133 145 148 133 143 141 155 156 159 169 186 190 176 140 155 168 169 151 171 183 199 201
279 309 306 304 315 318 317 315 311 310 314 319 311 303 291 271 308 66 128 119 129 148 162 165 163 150 146 151 164 168 188 200 200 190 170 171 166 134 68 90 114 123 135 143
312 314 307 302 302 302 299 296 297 300 303 305 308 300 283 270 242 160 152 166 176 179 176 177 173 174 171 169 179 183 196 200 202 194 176 182 181 172 152 95 87 93 110 116
323 313 299 293 296 300 298 302 307 302 293 289 295 298 283 299 339 352 201 198 208 185 185 201 194 196 189 176 175 185 200 189 198 190 185 187 185 180 167 162 152 131 113 140
292 287 282 289 295 295 291 289 288 287 289 292 289 281 265 285 303 300 260 190 191 220 218 205 203 201 185 177 168 182 204 199 195 188 184 182 167 165 170 165 158 152 136 139
286 283 278 278 283 287 290 286 284 284 285 283 281 286 292 280 280 263 204 171 184 234 227 192 193 211 180 169 172 182 182 156 173 201 194 171 168 184 178 166 165 162 168 164
283 278 275 277 282 287 291 291 289 288 280 264 271 287 284 267 250 235 219 204 202 224 223 211 212 210 173 173 189 186 179 178 190 215 215 186 179 181 183 188 189 185 176 163
280 280 278 276 281 287 293 299 301 293 276 270 269 273 280 267 247 251 246 243 229 211 217 214 198 195 174 168 176 188 189 194 196 221 218 189 180 179 184 191 195 189 167 160
284 283 279 276 280 282 290 300 297 293 293 285 258 249 256 271 255 246 246 247 245 237 229 205 188 194 189 177 181 194 198 202 196 188 181 155 164 179 186 186 185 195 184 172
295 294 288 279 283 284 289 294 294 298 293 290 289 276 250 264 275 246 208 238 248 248 200 175 180 198 195 178 189 209 208 211 205 188 171 166 170 182 185 180 183 188 190 188
314 305 289 281 296 307 297 300 298 287 289 287 274 264 252 247 265 204 217 245 270 56 141 153 177 192 200 164 184 221 224 208 195 191 180 172 179 191 188 189 192 193 194 194
333 319 317 321 316 305 301 301 294 287 308 313 294 271 255 260 258 237 226 257 246 126 156 180 187 142 134 149 211 231 231 196 174 176 178 183 193 201 198 203 198 192 191 200
330 326 333 336 321 308 303 297 294 286 286 287 281 261 246 256 256 247 237 222 183 140 176 184 123 108 112 181 235 245 255 237 169 149 214 224 210 212 212 214 210 208 195 195
322 314 297 284 270 273 277 267 259 254 259 264 253 235 234 244 252 252 251 148 144 147 188 142 138 141 160 207 226 230 269 269 232 228 248 244 221 205 212 227 211 173 155 160
292 284 278 273 266 261 250 244 244 240 236 238 237 216 224 228 230 240 156 139 146 159 181 147 167 176 189 211 211 247 288 275 269 317 286 273 251 219 159 144 123 116 111 113
288 270 260 247 250 255 250 245 245 241 241 239 239 241 236 202 192 197 183 181 174 186 196 174 180 189 188 190 195 215 229 162 152 245 260 269 330 34 88 87 75 90 104 110
282 270 254 248 244 248 246 236 238 238 230 227 240 243 242 232 200 194 200 195 186 193 188 168 174 172 169 185 184 197 194 191 198 127 63 57 28 31 75 111 150 159 150 123
Height
1465 1459 1456 1457 1455 1454 1457 1459 1464 1460 1457 1454 1454 1456 1459 1462 1466 1469 1471 1473 1475 1476 1478 1480 1481 1483 1485 1487 1490 1492 1494 1497 1499 1502 1505 1507 1509 1511 1513 1515 1517 1518 1519 1520
1470 1461 1458 1457 1452 1450 1451 1452 1455 1455 1455 1450 1453 1456 1460 1463 1465 1468 1471 1474 1475 1476 1478 1479 1480 1482 1483 1484 1487 1488 1490 1493 1496 1499 1501 1503 1505 1507 1509 1511 1513 1514 1515 1516
1474 1464 1461 1465 1453 1450 1449 1447 1450 1455 1454 1452 1455 1459 1462 1463 1465 1468 1470 1473 1475 1476 1476 1478 1479 1480 1481 1482 1484 1485 1487 1489 1491 1495 1497 1499 1502 1503 1505 1507 1509 1510 1511 1512
1474 1474 1482 1459 1443 1444 1447 1448 1447 1449 1452 1454 1458 1461 1463 1464 1466 1468 1470 1471 1472 1473 1474 1476 1477 1478 1479 1480 1481 1483 1484 1486 1489 1491 1493 1495 1497 1499 1500 1502 1504 1505 1506 1508
1475 1476 1468 1453 1447 1447 1451 1454 1451 1452 1454 1456 1458 1459 1463 1465 1466 1468 1469 1470 1470 1471 1473 1474 1475 1476 1476 1477 1478 1480 1482 1483 1485 1487 1490 1491 1493 1494 1496 1498 1499 1501 1502 1503
1473 1479 1478 1459 1448 1447 1451 1459 1456 1456 1457 1459 1460 1462 1465 1466 1467 1468 1469 1469 1469 1469 1470 1471 1472 1474 1474 1475 1476 1478 1479 1481 1482 1484 1486 1488 1489 1490 1492 1494 1495 1497 1498 1499
1472 1472 1463 1454 1449 1450 1464 1465 1459 1459 1460 1461 1463 1466 1467 1467 1467 1468 1468 1468 1468 1468 1468 1469 1470 1471 1472 1473 1474 1475 1477 1478 1480 1481 1482 1484 1486 1487 1488 1490 1491 1493 1494 1495
1468 1471 1468 1455 1453 1458 1462 1460 1460 1461 1462 1463 1464 1465 1465 1466 1466 1466 1466 1466 1466 1466 1466 1467 1468 1469 1470 1471 1472 1473 1474 1476 1477 1478 1479 1481 1482 1484 1485 1487 1488 1489 1490 1491
1461 1464 1461 1460 1460 1461 1461 1462 1462 1462 1462 1463 1463 1464 1464 1465 1465 1465 1464 1464 1464 1464 1464 1465 1467 1468 1468 1469 1471 1472 1472 1473 1474 1475 1476 1477 1479 1481 1482 1484 1485 1486 1487 1488
1460 1459 1461 1462 1463 1463 1464 1464 1464 1463 1463 1462 1462 1462 1462 1463 1463 1463 1463 1463 1462 1462 1463 1464 1465 1467 1467 1468 1469 1470 1471 1472 1472 1473 1474 1475 1477 1478 1479 1481 1482 1484 1485 1485
1461 1461 1462 1463 1464 1465 1464 1464 1464 1463 1462 1461 1461 1461 1461 1461 1461 1461 1461 1461 1461 1461 1462 1463 1464 1465 1465 1466 1466 1468 1469 1470 1471 1472 1472 1473 1474 1475 1476 1478 1479 1481 1482 1483
1462 1462 1464 1465 1465 1465 1464 1464 1463 1463 1461 1461 1460 1459 1459 1459 1459 1459 1460 1460 1460 1461 1461 1462 1463 1463 1464 1464 1465 1466 1467 1468 1470 1471 1471 1472 1473 1474 1475 1476 1478 1479 1480 1481
1462 1463 1463 1464 1464 1464 1463 1463 1462 1461 1461 1460 1459 1458 1458 1458 1458 1458 1458 1459 1459 1459 1460 1461 1461 1461 1462 1462 1463 1464 1465 1467 1468 1469 1469 1471 1471 1472 1473 1475 1476 1477 1478 1479
1463 1463 1462 1462 1462 1462 1461 1461 1460 1460 1459 1459 1458 1458 1458 1457 1457 1457 1457 1457 1458 1458 1459 1460 1460 1459 1460 1461 1462 1463 1464 1465 1466 1467 1468 1469 1470 1471 1472 1473 1474 1475 1476 1477
1462 1461 1461 1461 1460 1460 1460 1459 1459 1458 1458 1458 1457 1457 1457 1457 1456 1456 1456 1456 1456 1456 1457 1457 1457 1458 1458 1459 1461 1461 1463 1464 1465 1466 1467 1468 1469 1470 1471 1471 1472 1473 1474 1475
1460 1459 1459 1459 1459 1458 1458 1457 1457 1456 1456 1456 1456 1456 1456 1456 1455 1455 1455 1455 1455 1455 1455 1456 1456 1456 1457 1458 1459 1460 1461 1463 1464 1464 1465 1466 1467 1468 1469 1470 1470 1471 1472 1473
1458 1457 1458 1458 1457 1457 1456 1456 1455 1455 1454 1454 1455 1455 1455 1454 1454 1454 1454 1454 1454 1454 1454 1454 1454 1455 1456 1457 1458 1459 1460 1461 1462 1463 1464 1464 1465 1466 1467 1468 1468 1469 1470 1471
1457 1456 1456 1456 1456 1455 1454 1454 1453 1453 1453 1453 1454 1454 1453 1453 1453 1453 1453 1453 1452 1452 1452 1452 1453 1453 1454 1455 1456 1458 1459 1460 1460 1461 1462 1462 1463 1464 1465 1466 1467 1468 1469 1470
1455 1455 1454 1454 1454 1454 1453 1452 1451 1451 1451 1451 1452 1452 1452 1452 1452 1452 1452 1451 1451 1451 1451 1451 1452 1452 1453 1454 1455 1456 1457 1459 1459 1460 1461 1461 1462 1462 1463 1464 1465 1466 1467 1467
1453 1453 1453 1453 1453 1452 1451 1451 1451 1451 1451 1451 1451 1450 1450 1450 1450 1450 1450 1449 1449 1449 1449 1450 1451 1451 1452 1453 1453 1454 1456 1457 1458 1459 1459 1459 1460 1461 1462 1463 1464 1464 1465 1466
1452 1452 1452 1451 1451 1451 1451 1450 1450 1450 1450 1450 1450 1449 1449 1449 1449 1449 1449 1448 1448 1448 1448 1448 1449 1450 1451 1452 1452 1453 1455 1456 1457 1457 1458 1459 1460 1461 1461 1462 1463 1464 1464 1465
1452 1452 1451 1451 1451 1450 1450 1450 1450 1449 1449 1449 1449 1449 1449 1448 1448 1448 1448 1448 1448 1447 1448 1448 1449 1450 1451 1451 1452 1453 1454 1455 1456 1456 1457 1458 1459 1460 1460 1461 1462 1462 1463 1463
1452 1452 1451 1451 1450 1450 1450 1449 1449 1449 1449 1449 1449 1449 1448 1448 1448 1448 1448 1448 1447 1447 1447 1448 1449 1449 1450 1450 1451 1452 1453 1454 1455 1456 1456 1457 1458 1458 1459 1460 1460 1461 1461 1461
1452 1451 1450 1450 1450 1449 1449 1449 1449 1449 1448 1448 1448 1448 1448 1447 1448 1448 1447 1447 1447 1447 1447 1448 1448 1448 1449 1450 1451 1452 1452 1453 1454 1455 1456 1456 1456 1456 1457 1458 1458 1458 1458 1459
1451 1450 1450 1449 1449 1448 1448 1448 1448 1448 1448 1448 1447 1447 1447 1447 1447 1447 1447 1447 1447 1447 1447 1448 1448 1448 1449 1449 1450 1451 1451 1452 1452 1453 1454 1454 1454 1454 1455 1455 1456 1456 1456 1456
1449 1449 1448 1448 1448 1447 1448 1448 1447 1447 1448 1447 1447 1447 1447 1447 1447 1447 1447 1447 1447 1447 1447 1447 1447 1448 1448 1449 1449 1450 1450 1451 1451 1451 1451 1452 1453 1453 1453 1453 1453 1453 1454 1454
1448 1448 1447 1447 1446 1446 1446 1446 1446 1447 1447 1447 1447 1447 1447 1447 1447 1447 1447 1447 1447 1447 1447 1447 1447 1447 1448 1448 1448 1449 1449 1450 1450 1450 1450 1451 1451 1451 1451 1451 1451 1451 1452 1451